Regional Weather Roundup
Issued by NWS

Home | Current Version | Previous Version | Text Only | Print | Product List | Glossary Off
Versions: 1 2 3 4 5 6 7 8 9 10 11 12 13 14 15 16 17 18 19 20 21 22 23 24 25 26 27 28 29 30 31 32 33 34 35 36 37 38 39 40 41 42 43 44 45 46 47 48 49 50

000
ASUS43 KLSX 021307
RWRMO

WEATHER SUMMARY FOR MISSOURI
NATIONAL WEATHER SERVICE SPRINGFIELD MO
800 AM CDT MON MAY 02 2016

NOTE: "FAIR" INDICATES FEW OR NO CLOUDS BELOW 12,000 FEET WITH NO
       SIGNIFICANT WEATHER AND/OR OBSTRUCTIONS TO VISIBILITY.
       CURRENT SKY AND/OR WEATHER CONDITIONS ARE NOT AVAILABLE FOR
       CHILLICOTHE AND FARMINGTON.

MOZ001>031-035>038-043-044-053-054-021400-
...NORTHERN AND WESTERN MISSOURI...

CITY           SKY/WX    TMP DP  RH WIND       PRES   REMARKS
KANSAS CTY INT CLOUDY    48  45  89 N9        30.11R
KANSAS C DTWN  CLOUDY    50  44  80 N6        30.11R
LEE`S SUMMIT   CLOUDY    49  45  86 NW5       30.11R
ST JOSEPH      CLOUDY    49  45  86 N3        30.12R
CHILLICOTHE      N/A     50  47  89 VRB5      30.11R
KIRKSVILLE     CLOUDY    49  46  90 N10       30.08S FOG

$$
MOZ066>068-077>081-088>096-101>105-021400-
...SOUTHWEST MISSOURI...

CITY           SKY/WX    TMP DP  RH WIND       PRES   REMARKS
SPRINGFIELD    CLOUDY    52  45  77 N12       30.06F
JOPLIN         CLOUDY    50  46  86 N6        30.10S
BRANSON        CLOUDY    52  48  87 CALM      30.08R

$$
MOZ032>034-039>042-045>050-055>058-069>072-021400-
...CENTRAL MISSOURI...

CITY           SKY/WX    TMP DP  RH WIND       PRES   REMARKS
COLUMBIA       CLOUDY    50  46  86 NW9       30.08R
JEFFERSON CITY CLOUDY    51  46  83 W5        30.08R
ROLLA          CLOUDY    48  45  89 NW5       30.05S
SEDALIA        CLOUDY    50  46  86 N5        30.10R
WARRENSBURG    CLOUDY    48  45  87 NW3       30.10R
OSAGE BEACH    CLOUDY    48  39  71 CALM      30.08F

$$
MOZ051-052-059>065-021400-
...EAST CENTRAL MISSOURI...

CITY           SKY/WX    TMP DP  RH WIND       PRES   REMARKS
ST LOUIS INTL  LGT RAIN  53  48  83 N7        30.06R
SPIRIT OF STL  CLOUDY    51  49  92 CALM      30.05R
ST CHARLES     CLOUDY    52  49  89 NW5       30.04R

$$
MOZ072>076-082>087-097>100-106>115-021400-
...SOUTH CENTRAL AND SOUTHEAST MISSOURI...

CITY           SKY/WX    TMP DP  RH WIND       PRES   REMARKS
CAPE GIRARDEAU CLOUDY    57  51  80 VRB7      30.03F
FARMINGTON     CLOUDY    52  46  80 N9        30.05R
POPLAR BLUFF   CLOUDY    56  49  77 N6        30.03R
WEST PLAINS    SUNNY     53  44  71 N9        30.08R

$$



USA.gov is the U.S. government's official web portal to all federal, state and local government web resources and services.